TimeCDT,TemperatureF,Dew PointF,Humidity,Sea Level PressureIn,VisibilityMPH,Wind Direction,Wind SpeedMPH,Gust SpeedMPH,PrecipitationIn,Events,Conditions,WindDirDegrees,DateUTC
12:53 AM,68.0,62.1,81,29.96,10.0,ESE,5.8,-,N/A,,Partly Cloudy,120,2012-10-10 05:53:00
1:53 AM,66.9,62.1,84,29.96,10.0,ESE,3.5,-,N/A,,Clear,110,2012-10-10 06:53:00
2:53 AM,66.0,62.1,87,29.98,10.0,East,4.6,-,N/A,,Clear,90,2012-10-10 07:53:00
3:53 AM,64.9,62.1,90,29.98,9.0,ENE,5.8,-,N/A,,Clear,60,2012-10-10 08:53:00
4:53 AM,64.0,62.1,93,30.00,7.0,ENE,5.8,-,N/A,,Clear,60,2012-10-10 09:53:00
5:53 AM,63.0,61.0,93,30.02,6.0,East,3.5,-,N/A,,Clear,90,2012-10-10 10:53:00
6:53 AM,64.0,62.1,93,30.05,5.0,Calm,Calm,-,N/A,,Clear,0,2012-10-10 11:53:00
7:22 AM,62.6,62.6,100,30.07,4.0,ENE,3.5,-,N/A,,Scattered Clouds,60,2012-10-10 12:22:00
7:40 AM,64.4,62.6,94,30.08,1.0,ESE,4.6,-,N/A,,Mostly Cloudy,110,2012-10-10 12:40:00
7:47 AM,64.4,64.4,100,30.09,1.0,ESE,6.9,-,N/A,,Mostly Cloudy,120,2012-10-10 12:47:00
7:53 AM,64.9,64.0,97,30.07,0.1,ESE,6.9,-,N/A,Fog,Fog,110,2012-10-10 12:53:00
8:03 AM,64.4,64.4,100,30.09,0.1,ESE,6.9,-,N/A,Fog,Fog,120,2012-10-10 13:03:00
8:13 AM,66.2,64.4,94,30.09,0.1,ESE,3.5,-,N/A,Fog,Fog,110,2012-10-10 13:13:00
8:41 AM,66.2,66.2,100,30.11,0.2,NE,3.5,-,N/A,,Mist,50,2012-10-10 13:41:00
8:53 AM,66.9,66.0,97,30.10,0.2,NE,3.5,-,N/A,,Overcast,50,2012-10-10 13:53:00
9:16 AM,66.2,66.2,100,30.12,3.0,ENE,4.6,-,N/A,,Overcast,60,2012-10-10 14:16:00
9:45 AM,66.2,64.4,94,30.13,1.5,NE,5.8,-,N/A,,Overcast,50,2012-10-10 14:45:00
9:53 AM,66.9,64.9,93,30.12,1.5,ENE,8.1,-,N/A,,Overcast,60,2012-10-10 14:53:00
10:04 AM,66.2,64.4,94,30.14,2.0,NE,6.9,-,N/A,,Overcast,50,2012-10-10 15:04:00
10:12 AM,66.2,64.4,94,30.14,1.8,NE,8.1,-,0.00,,Light Drizzle,40,2012-10-10 15:12:00
10:42 AM,64.4,62.6,94,30.15,1.8,NE,10.4,-,0.00,,Light Drizzle,50,2012-10-10 15:42:00
10:53 AM,64.0,63.0,96,30.14,1.8,ENE,9.2,-,0.00,,Light Drizzle,60,2012-10-10 15:53:00
11:50 AM,64.4,62.6,94,30.16,2.0,ENE,10.4,-,0.00,,Light Drizzle,60,2012-10-10 16:50:00
11:53 AM,64.9,62.1,90,30.14,2.0,ENE,12.7,-,0.00,,Light Drizzle,60,2012-10-10 16:53:00
12:18 PM,64.4,62.6,94,30.15,3.0,ENE,9.2,-,0.00,,Light Drizzle,60,2012-10-10 17:18:00
12:43 PM,66.2,62.6,88,30.15,4.0,NE,10.4,-,0.00,,Overcast,50,2012-10-10 17:43:00
12:53 PM,66.0,62.1,87,30.14,4.0,NE,10.4,-,0.00,,Overcast,50,2012-10-10 17:53:00
1:53 PM,66.9,63.0,87,30.12,5.0,ENE,10.4,18.4,N/A,,Overcast,60,2012-10-10 18:53:00
2:53 PM,68.0,63.0,84,30.09,4.0,East,8.1,-,N/A,,Haze,80,2012-10-10 19:53:00
3:53 PM,68.0,63.0,84,30.09,4.0,ENE,10.4,-,N/A,,Haze,70,2012-10-10 20:53:00
4:10 PM,69.8,62.6,78,30.09,5.0,ENE,9.2,-,N/A,,Haze,60,2012-10-10 21:10:00
4:53 PM,70.0,63.0,78,30.07,6.0,NE,10.4,-,N/A,,Haze,40,2012-10-10 21:53:00
5:21 PM,69.8,62.6,78,30.08,7.0,NE,6.9,-,N/A,,Overcast,40,2012-10-10 22:21:00
5:36 PM,69.8,62.6,78,30.08,7.0,NE,8.1,-,N/A,,Mostly Cloudy,50,2012-10-10 22:36:00
5:53 PM,70.0,62.1,76,30.07,8.0,NE,6.9,-,N/A,,Overcast,50,2012-10-10 22:53:00
6:53 PM,69.1,61.0,75,30.08,8.0,ENE,4.6,-,N/A,,Mostly Cloudy,70,2012-10-10 23:53:00
7:39 PM,68.0,60.8,78,30.10,10.0,East,3.5,-,N/A,,Overcast,90,2012-10-11 00:39:00
7:53 PM,69.1,61.0,75,30.09,10.0,East,4.6,-,N/A,,Overcast,90,2012-10-11 00:53:00
8:53 PM,69.1,60.1,73,30.10,10.0,East,8.1,-,N/A,,Overcast,100,2012-10-11 01:53:00
9:53 PM,69.1,60.1,73,30.11,10.0,ESE,6.9,-,N/A,,Overcast,120,2012-10-11 02:53:00
10:53 PM,68.0,60.1,76,30.11,10.0,ESE,5.8,-,N/A,,Overcast,110,2012-10-11 03:53:00
11:26 PM,66.2,60.8,83,30.11,10.0,ESE,5.8,-,N/A,,Scattered Clouds,110,2012-10-11 04:26:00
11:53 PM,66.0,60.1,81,30.10,10.0,East,3.5,-,N/A,,Partly Cloudy,90,2012-10-11 04:53:00